Location: Arroyo de Valdeoliva
(40.1604°N, 4.9878°W)
Time: 20:39:06
(UTC+00:00)

SPOT 1/Viking Rocket - Pass Details

Date: 10 March 2026
Orbit: 773 x 788 km, 98.2° (Epoch: 11 April)

Event Time Altitude Azimuth Distance (km) Brightness Sun altitude
Rises 19:26:03 0° 201° (SSW) 3,243 6.9 -13.2°
Reaches altitude 10° 19:28:51 10° 217° (SW) 2,324 6.4 -13.7°
Maximum altitude 19:32:46 22° 267° (W) 1,657 6.2 -14.4°
Drops below altitude 10° 19:36:43 10° 317° (NW) 2,344 6.8 -15.2°
Sets 19:39:35 0° 333° (NNW) 3,280 7.3 -15.7°
